Weather History for PATO - November, 2012

Change the Weather History Date:

Monday, November 5, 2012

  Actual Average Record
Temperature  
Mean Temperature 20 °F -  
Max Temperature 23 °F - - ()
Min Temperature 16 °F - - ()
Degree Days  
Heating Degree Days 46    
Moisture  
Dew Point 18 °F    
Average Humidity 89    
Maximum Humidity 100    
Minimum Humidity 74    
Precipitation  
Precipitation 0.11 in - - ()
Sea Level Pressure  
Sea Level Pressure 29.65 in    
Wind  
Wind Speed 5 mph (WNW)    
Max Wind Speed 9 mph    
Max Gust Speed -    
Visibility 5 miles    
Events Snow    
T = Trace of Precipitation, MM = Missing Value Source: NWS Daily Summary

Daily Weather History Graph

Daily Weather History Graph

Search for Another Location

Airport or City:

Trip Planner

Search our weather history database for the weather conditions in past years. The results will help you decide how hot, cold, wet, or windy it might be!

Date:

Astronomy

Nov. 05, 2012 Rise Set
Actual Time 8:33 AM AKST 4:43 PM AKST
Civil Twilight 7:45 AM AKST 5:31 PM AKST
Nautical Twilight 6:54 AM AKST 6:22 PM AKST
Astronomical Twilight 6:04 AM AKST 7:11 PM AKST
Moon 10:35 PM AKST (11/5) 1:59 PM AKST (11/5)
Length of Visible Light 9h 45m
Length of Day
8h 09m
Waning Gibbous, 61% of the Moon is Illuminated
Nov 5
Waning Gibbous
Nov 6
Last Quarter
Nov 13
New
Nov 20
First Quarter
Nov 28
Full

Hourly Weather History & Observations

Time (AKST) Temp. Windchill Dew Point Humidity Pressure Visibility Wind Dir Wind Speed Gust Speed Precip Events Conditions
12:53 AM 21.0 °F 11.4 °F 17.1 °F 85% 29.43 in 10.0 mi West 8.1 mph - N/A   Clear
1:53 AM 21.0 °F 11.4 °F 17.1 °F 85% 29.45 in 10.0 mi WNW 8.1 mph - N/A   Clear
3:53 AM 21.9 °F 12.5 °F 15.1 °F 75% 29.49 in 10.0 mi WNW 8.1 mph - N/A   Mostly Cloudy
4:53 AM 21.0 °F 10.6 °F 15.1 °F 78% 29.50 in 10.0 mi WNW 9.2 mph - N/A   Mostly Cloudy
5:53 AM 21.0 °F 14.6 °F 14.0 °F 74% 29.53 in 10.0 mi WNW 4.6 mph - N/A   Partly Cloudy
6:53 AM 17.1 °F 8.7 °F 14.0 °F 88% 29.55 in 10.0 mi WSW 5.8 mph - N/A   Clear
7:53 AM 16.0 °F 8.8 °F 14.0 °F 92% 29.55 in 10.0 mi WNW 4.6 mph - N/A   Partly Cloudy
8:53 AM 16.0 °F - 14.0 °F 92% 29.57 in 10.0 mi Calm Calm - N/A   Overcast
9:53 AM 18.0 °F 11.1 °F 15.1 °F 88% 29.59 in 10.0 mi West 4.6 mph - N/A   Overcast
10:53 AM 19.0 °F 13.9 °F 15.1 °F 85% 29.60 in 10.0 mi WNW 3.5 mph - N/A   Overcast
11:18 AM 19.9 °F 14.9 °F 16.0 °F 85% 29.60 in 10.0 mi WNW 3.5 mph - N/A   Overcast
11:53 AM 19.9 °F 14.9 °F 17.1 °F 89% 29.61 in 10.0 mi West 3.5 mph - N/A   Overcast
12:53 PM 21.9 °F - 17.1 °F 82% 29.62 in 10.0 mi Calm Calm - N/A   Overcast
1:53 PM 21.9 °F 17.2 °F 17.1 °F 82% 29.63 in 2.5 mi West 3.5 mph - 0.00 in Snow Light Snow
2:12 PM 21.9 °F 15.7 °F 18.0 °F 85% 29.63 in 1.8 mi West 4.6 mph - 0.00 in Snow Light Snow
2:18 PM 21.9 °F 17.2 °F 19.0 °F 89% 29.63 in 3.0 mi West 3.5 mph - 0.00 in Snow Light Snow
2:53 PM 23.0 °F - 18.0 °F 81% 29.64 in 10.0 mi Calm Calm - 0.00 in   Overcast
3:53 PM 23.0 °F - 19.0 °F 85% 29.65 in 10.0 mi Calm Calm - N/A   Overcast
4:53 PM 23.0 °F - 18.0 °F 81% 29.65 in 10.0 mi Calm Calm - N/A   Overcast
5:23 PM 23.0 °F - 19.9 °F 88% 29.65 in 10.0 mi Calm Calm - N/A   Overcast
5:53 PM 21.9 °F - 19.9 °F 92% 29.66 in 2.5 mi Calm Calm - 0.00 in Snow Light Snow
6:12 PM 21.9 °F 17.2 °F 19.9 °F 92% 29.66 in 3.0 mi West 3.5 mph - 0.00 in Snow Light Snow
6:24 PM 21.9 °F 15.7 °F 19.9 °F 92% 29.67 in 2.5 mi WNW 4.6 mph - 0.00 in Snow Light Snow
6:31 PM 21.9 °F 17.2 °F 19.9 °F 92% 29.67 in 3.0 mi Variable 3.5 mph - 0.00 in Snow Light Snow
6:43 PM 21.9 °F 15.7 °F 19.9 °F 92% 29.68 in 1.8 mi WNW 4.6 mph - 0.00 in Snow Light Snow
6:53 PM 21.9 °F 15.7 °F 19.9 °F 92% 29.69 in 1.5 mi West 4.6 mph - 0.00 in Snow Light Snow
7:44 PM 21.9 °F 15.7 °F 21.0 °F 96% 29.70 in 0.8 mi WNW 4.6 mph - 0.02 in Snow Light Snow
7:53 PM 21.9 °F 15.7 °F 21.0 °F 96% 29.71 in 0.8 mi Variable 4.6 mph - 0.02 in Snow Light Snow
8:36 PM 21.9 °F 15.7 °F 21.0 °F 96% 29.71 in 1.0 mi WNW 4.6 mph - 0.03 in Snow Light Snow
8:53 PM 21.9 °F 15.7 °F 21.0 °F 96% 29.72 in 1.0 mi WNW 4.6 mph - 0.03 in Snow Light Snow
9:05 PM 21.9 °F 17.2 °F 21.0 °F 96% 29.72 in 1.2 mi WNW 3.5 mph - 0.01 in Snow Light Snow
9:53 PM 21.9 °F 15.7 °F 21.0 °F 96% 29.73 in 1.0 mi WNW 4.6 mph - 0.02 in Snow Light Snow
10:04 PM 21.9 °F 17.2 °F 21.0 °F 96% 29.73 in 0.8 mi WNW 3.5 mph - 0.01 in Snow Light Snow
10:16 PM 21.9 °F 17.2 °F 21.0 °F 96% 29.73 in 1.0 mi WNW 3.5 mph - 0.02 in Snow Light Snow
10:34 PM 21.9 °F 14.5 °F 21.0 °F 96% 29.74 in 1.0 mi West 5.8 mph - 0.02 in Snow Light Snow
10:48 PM 21.2 °F 13.6 °F 21.2 °F 100% 29.74 in 2.5 mi West 5.8 mph - 0.03 in Snow Light Snow
10:53 PM 21.9 °F 15.7 °F 21.0 °F 96% 29.75 in 3.0 mi West 4.6 mph - 0.03 in Snow Light Snow
11:03 PM 21.9 °F 13.4 °F 21.0 °F 96% 29.74 in 1.8 mi West 6.9 mph - 0.00 in Snow Light Snow
11:35 PM 21.9 °F 15.7 °F 19.0 °F 89% 29.75 in 2.0 mi West 4.6 mph - 0.01 in Snow Light Snow
11:42 PM 21.9 °F 14.5 °F 19.0 °F 89% 29.75 in 1.5 mi WNW 5.8 mph - 0.01 in Snow Light Snow
11:53 PM 21.9 °F 14.5 °F 19.0 °F 89% 29.76 in 1.0 mi West 5.8 mph - 0.01 in Snow Light Snow